Location: Mascot Post Office (historical)
(40.2645°N, 99.5462°W)
Time: 02:36:01
(UTC+00:00)

Cosmos 1943 Rocket - Pass Details

Date: 14 July 2020
Orbit: 811 x 845 km, 71.0° (Epoch: 14 August)

Event Time Altitude Azimuth Distance (km) Brightness Sun altitude
Rises 04:50:34 0° 341° (NNW) 3,411 6.8 -22.7°
Reaches altitude 10° 04:53:07 10° 346° (NNW) 2,470 5.7 -22.9°
Maximum altitude 04:58:38 52° 62° (ENE) 1,037 2.6 -23.4°
Enters shadow 04:59:54 44° 103° (ESE) 1,154 2.6 -23.5°
